Location: *
(50.3440°N, 18.6237°E)
Time: 13:50:18
(UTC+00:00)

CZ-4 R/B - Pass Details

Date: 30 November 2020
Orbit: 532 x 598 km, 97.7° (Epoch: 27 January)

Event Time Altitude Azimuth Distance (km) Brightness Sun altitude
Exits shadow 16:04:22 16° 90° (E) 1,497 3.0 -12.0°
Maximum altitude 16:05:53 20° 61° (ENE) 1,349 2.7 -12.2°
Drops below altitude 10° 16:08:51 10° 15° (NNE) 1,892 3.7 -12.7°
Sets 16:11:28 0° 358° (N) 2,809 4.8 -13.1°
